sat.trackr.live / text

‹ back to catalog

VIASAT-3 F3

NORAD 68893 · 2026-096A

PAYLOAD ACTIVE UNKNOWN

§ Identity

Operator
Country
US
Launch date
2026-04-29
Launch site
AFETR
Launch vehicle
Mass (kg)
RCS (m²)

External: N2YO · Heavens-Above · Gunter

§ Orbital elements

Epoch: 2026-09-19T18:23:38.682816Z

Period
1,436.08 min
Inclination
0.0127°
Eccentricity
0.0000213
Mean motion
1.00273057 rev/d
Perigee alt
35,785.3 km
Apogee alt
35,787.1 km
Semi-major
42,164.4 km
B*
0.0000e+0
RAAN
233.8379°
Arg perigee
352.5268°
Mean anomaly
206.8252°
Rev number
155

§ Raw data

VIASAT-3 F31 68893U 26096A   26262.76641994 -.00000127  00000+0  00000+0 0  99902 68893   0.0127 233.8379 0000213 352.5268 206.8252  1.00273057  1559

JSON: /api/v1/satellites/68893 · /tle

For live sub-satellite position, see the globe view (requires WebGL).

§ Visibility from observer

Set your observer location to see the next 7 days of passes ≥ 10°. The values pass through the URL so the page stays shareable.

No JS? Fill the form by hand. The geolocation button needs JavaScript.